Weather in Pshicho

Russia / Republic of Adygea     45°04′05″N   40°10′31″E
temp.,
°C
wind,
m/s
gust,
m/s
humid.,
%
clouds,
%
prec.,
mm/h
press.,
hPa
HPBL,
m
6 may, thu
thu600:00+8e47780 0.0 1015116
03:00+7e498823 0.0 1014142
06:00+8e3688100 0.0 1014133
09:00+15ese337078 0.0 1013413
12:00+20nw115658 0.0 1012876
15:00+21nnw225172 0.0 10121143
18:00+20nw1166100 0.0 101214
21:00+15ne1173100 0.0 101311
7 may, fri
fri700:00+13w2279100 0.0 101313
03:00+12wsw348321 0.0 101589
06:00+10wsw357585 0.0 1017124
09:00+16wsw33613 0.0 1017393
12:00+19w465224 0.0 10171134
15:00+20wnw565294 0.0 10171385
18:00+19w126922 0.0 1017157
21:00+14s22775 0.0 101811
8 may, sat
sat800:00+12se228279 0.0 101714
03:00+11ese338546 0.0 101639
06:00+12se238836 0.0 101669
09:00+18ese2271100 0.0 1015409
12:00+22e2261100 0.0 1014864
15:00+23e2254100 0.0 10121155
18:00+22ne126620 0.0 101120
21:00+17e337697 0.0 101037
9 may, sun
sun900:00+15sse238396 0.0 100931
03:00+15wsw41090100 0.3 1009201
06:00+13wnw2982100 0.0 1009303
09:00+16sw5137399 0.1 1009939
12:00+10w111688100 0.1 10141038
15:00+8w111584100 0.3 10191178
18:00+7w5990100 0.4 10221050
21:00+6wsw6128740 0.7 1024365
10 may, mon
mon1000:00+6wsw6138799 0.0 1024411
03:00+7wsw7157970 0.0 1022477
06:00+7wsw71382100 0.1 1022461
09:00+11w8126915 0.4 10201585
12:00+12w9136296 0.6 10201859
15:00+11wsw8147198 0.9 10201579
18:00+9wsw9157779 0.6 10201306
21:00+8wsw81476100 0.6 1020962